#timestamp,LO_Frequency,Hit,Temp,Hum 
1479409215.4,286046968.5,N,0.0,0.0
1479409235.3,286046970.8,N,0.0,0.0
1479409255.1,286046968.0,N,0.0,0.0
1479409275.8,286046970.4,N,0.0,0.0
1479409295.7,286046970.5,N,0.0,0.0
1479409315.5,286046972.4,N,0.0,0.0
1479409335.4,286046972.3,N,0.0,0.0
1479409355.2,286046971.2,N,0.0,0.0
1479409375.0,286046971.6,N,0.0,0.0
1479409375.9,286046971.6,N,0.0,0.0
1479409395.8,286046970.9,N,0.0,0.0
1479409415.6,286046971.4,N,0.0,0.0
1479409435.4,286046971.3,N,0.0,0.0
1479409455.3,286046970.9,N,0.0,0.0
1479409475.1,286046973.7,N,0.0,0.0
1479409495.9,286046970.9,N,0.0,0.0
1479409515.7,286046974.0,N,0.0,0.0
1479409535.5,286046971.4,N,0.0,0.0
1479409555.4,286046973.4,N,0.0,0.0
1479409575.2,286046973.7,N,0.0,0.0
1479409595.0,286046973.7,N,0.0,0.0
1479409595.9,286046973.7,N,0.0,0.0
1479409615.8,286046973.2,N,0.0,0.0
1479409635.6,286046975.6,N,0.0,0.0
1479409655.5,286046975.2,N,0.0,0.0
1479409675.3,286046975.4,N,0.0,0.0
1479409695.1,286046975.5,N,0.0,0.0
1479409715.9,286046975.6,N,0.0,0.0
1479409735.7,286046973.1,N,0.0,0.0
1479409755.6,286046972.6,N,0.0,0.0
1479409775.4,286046975.3,N,0.0,0.0
1479409795.2,286046974.1,N,0.0,0.0
1479409815.1,286046974.1,N,0.0,0.0
1479409816.0,286046974.1,N,0.0,0.0
1479409835.8,286046977.2,N,0.0,0.0
1479409855.6,286046974.7,N,0.0,0.0
1479409875.5,286046974.6,N,0.0,0.0
1479409895.3,286046974.2,N,0.0,0.0
1479409915.2,286046977.1,N,0.0,0.0
1479409935.9,286046977.0,N,0.0,0.0
1479409955.7,286046976.9,N,0.0,0.0
1479409975.6,286046976.7,N,0.0,0.0
1479409995.4,286046976.2,N,0.0,0.0
1479410015.2,286046976.2,N,0.0,0.0
1479410035.1,286046976.1,N,0.0,0.0
1479410036.0,286046976.1,N,0.0,0.0
1479410055.8,286046976.0,N,0.0,0.0
1479410075.7,286046976.4,N,0.0,0.0
1479410095.5,286046976.5,N,0.0,0.0
1479410115.3,286046975.8,N,0.0,0.0
1479410135.2,286046976.7,N,0.0,0.0
1479410155.0,286046976.3,N,0.0,0.0
1479410155.9,286046976.3,N,0.0,0.0
1479410175.8,286046978.4,N,0.0,0.0
1479410195.6,286046977.6,N,0.0,0.0
1479410215.4,286046978.6,N,0.0,0.0
1479410235.3,286046977.7,N,0.0,0.0
1479410255.1,286046980.3,N,0.0,0.0
1479410275.8,286046979.5,N,0.0,0.0
1479410295.7,286046980.4,N,0.0,0.0
1479410315.5,286046977.7,N,0.0,0.0
1479410335.3,286046977.6,N,0.0,0.0
1479410355.2,286046980.3,N,0.0,0.0
1479410375.0,286046977.8,N,0.0,0.0
1479410375.9,286046977.8,N,0.0,0.0
1479410395.8,286046977.8,N,0.0,0.0
1479410415.6,286046980.0,N,0.0,0.0
1479410435.4,286046979.3,N,0.0,0.0
1479410455.3,286046979.8,N,0.0,0.0
1479410475.1,286046979.8,N,0.0,0.0
1479410495.9,286046980.2,N,0.0,0.0
1479410515.7,286046981.6,N,0.0,0.0
1479410535.5,286046981.6,N,0.0,0.0
1479410555.4,286046982.0,N,0.0,0.0
1479410575.2,286046981.4,N,0.0,0.0
1479410595.0,286046980.9,N,0.0,0.0
1479410595.9,286046980.9,N,0.0,0.0
1479410615.8,286046980.6,N,0.0,0.0
1479410635.6,286046983.5,N,0.0,0.0
1479410655.5,286046982.7,N,0.0,0.0
1479410675.3,286046985.2,N,0.0,0.0
1479410695.1,286046982.7,N,0.0,0.0
1479410715.9,286046983.4,N,0.0,0.0
1479410735.7,286046983.2,N,0.0,0.0
1479410755.5,286046982.9,N,0.0,0.0
1479410775.4,286046983.2,N,0.0,0.0
1479410795.2,286046983.3,N,0.0,0.0
1479410815.1,286046982.7,N,0.0,0.0
1479410816.0,286046982.7,N,0.0,0.0
1479410835.8,286046984.3,N,0.0,0.0
1479410855.6,286046984.4,N,0.0,0.0
1479410875.5,286046984.9,N,0.0,0.0
1479410895.3,286046984.3,N,0.0,0.0
1479410915.2,286046986.3,N,0.0,0.0
1479410935.9,286046983.7,N,0.0,0.0
1479410955.7,286046986.6,N,0.0,0.0
1479410975.6,286046986.3,N,0.0,0.0
1479410995.4,286046988.4,N,0.0,0.0
1479411015.2,286046988.1,N,0.0,0.0
1479411035.1,286046987.8,N,0.0,0.0
1479411036.0,286046987.8,N,0.0,0.0
1479411055.8,286046985.6,N,0.0,0.0
1479411075.7,286046985.7,N,0.0,0.0
1479411095.5,286046985.3,N,0.0,0.0
1479411115.3,286046988.3,N,0.0,0.0
1479411135.2,286046987.9,N,0.0,0.0
1479411155.9,286046989.9,N,0.0,0.0
1479411175.7,286046986.9,N,0.0,0.0
1479411195.6,286046990.0,N,0.0,0.0
1479411215.4,286046989.7,N,0.0,0.0
1479411235.3,286046989.8,N,0.0,0.0
1479411255.1,286046989.4,N,0.0,0.0
1479411256.0,286046989.4,N,0.0,0.0
1479411275.8,286046989.8,N,0.0,0.0
1479411295.7,286046987.0,N,0.0,0.0
1479411315.5,286046989.3,N,0.0,0.0
1479411335.3,286046989.3,N,0.0,0.0
1479411355.2,286046989.1,N,0.0,0.0
1479411375.0,286046991.2,N,0.0,0.0
1479411375.9,286046991.2,N,0.0,0.0
1479411395.8,286046990.6,N,0.0,0.0
1479411415.6,286046991.2,N,0.0,0.0
1479411435.4,286046990.6,N,0.0,0.0
1479411455.3,286046990.9,N,0.0,0.0
1479411475.1,286046991.1,N,0.0,0.0
1479411495.8,286046989.1,N,0.0,0.0
1479411515.7,286046991.3,N,0.0,0.0
1479411535.5,286046990.9,N,0.0,0.0
1479411555.4,286046993.2,N,0.0,0.0
1479411575.2,286046992.8,N,0.0,0.0
1479411595.0,286046992.5,N,0.0,0.0
1479411595.9,286046992.5,N,0.0,0.0
1479411615.8,286046992.5,N,0.0,0.0
1479411635.6,286046994.3,N,0.0,0.0
1479411655.4,286046994.7,N,0.0,0.0
1479411675.3,286046994.5,N,0.0,0.0
1479411695.1,286046994.0,N,0.0,0.0
1479411715.9,286046995.0,N,0.0,0.0
1479411735.7,286046996.4,N,0.0,0.0
1479411755.5,286046994.1,N,0.0,0.0
1479411775.4,286046994.0,N,0.0,0.0
1479411795.2,286046993.4,N,0.0,0.0
1479411815.0,286046993.8,N,0.0,0.0
1479411815.9,286046993.8,N,0.0,0.0
1479411835.8,286046993.4,N,0.0,0.0
1479411855.6,286046996.4,N,0.0,0.0
1479411875.5,286046996.2,N,0.0,0.0
1479411895.3,286046995.7,N,0.0,0.0
1479411915.1,286046995.2,N,0.0,0.0
1479411935.9,286046995.5,N,0.0,0.0
1479411955.7,286046997.8,N,0.0,0.0
1479411975.5,286046997.6,N,0.0,0.0
1479411995.4,286046997.5,N,0.0,0.0
1479412015.2,286046994.9,N,0.0,0.0
1479412035.1,286046997.3,N,0.0,0.0
1479412036.0,286046997.3,N,0.0,0.0
1479412055.8,286046997.4,N,0.0,0.0
1479412075.6,286046999.3,N,0.0,0.0
1479412095.5,286046996.6,N,0.0,0.0
1479412115.3,286047000.7,N,0.0,0.0
1479412135.2,286046998.3,N,0.0,0.0
1479412155.9,286046998.5,N,0.0,0.0
1479412175.7,286046998.9,N,0.0,0.0
1479412195.6,286046999.8,N,0.0,0.0
1479412215.4,286047000.8,N,0.0,0.0
1479412235.2,286047001.1,N,0.0,0.0
1479412255.1,286046998.3,N,0.0,0.0
1479412256.0,286046998.3,N,0.0,0.0
1479412275.8,286047001.2,N,0.0,0.0
1479412295.7,286046998.2,N,0.0,0.0
1479412315.5,286047000.6,N,0.0,0.0
1479412335.3,286047000.9,N,0.0,0.0
1479412355.2,286047002.8,N,0.0,0.0
1479412375.0,286047000.7,N,0.0,0.0
1479412375.9,286047000.7,N,0.0,0.0
1479412395.7,286047001.2,N,0.0,0.0
1479412415.6,286047000.9,N,0.0,0.0
1479412435.4,286047001.6,N,0.0,0.0
1479412455.3,286047002.1,N,0.0,0.0
1479412475.1,286047002.6,N,0.0,0.0
1479412476.0,286047002.6,N,0.0,0.0
1479412495.8,286047001.5,N,0.0,0.0
1479412515.7,286047004.0,N,0.0,0.0
1479412535.5,286047002.6,N,0.0,0.0
1479412555.3,286047001.4,N,0.0,0.0
1479412575.2,286047003.6,N,0.0,0.0
1479412595.0,286047005.6,N,0.0,0.0
1479412595.9,286047005.6,N,0.0,0.0
1479412615.8,286047002.9,N,0.0,0.0
1479412635.6,286047004.7,N,0.0,0.0
1479412655.4,286047004.6,N,0.0,0.0
1479412675.3,286047006.4,N,0.0,0.0
1479412695.1,286047007.6,N,0.0,0.0
1479412715.9,286047006.8,N,0.0,0.0
1479412735.7,286047006.3,N,0.0,0.0
1479412755.5,286047006.3,N,0.0,0.0
1479412775.4,286047006.7,N,0.0,0.0
1479412795.2,286047006.9,N,0.0,0.0
